Location: Worth Mountain WMA
(34.9569°N, 81.4819°W)
Time: 00:58:12
(UTC-05:00)

Cosmos 2056 Rocket - Pass Details

Date: 18 August 2017
Orbit: 743 x 800 km, 74.0° (Epoch: 24 November)

Event Time Altitude Azimuth Distance (km) Brightness Sun altitude
Rises 20:30:46 0° 203° (SSW) 3,167 6.7 -4.8°
Reaches altitude 10° 20:33:07 10° 206° (SSW) 2,251 6.0 -5.3°
Maximum altitude 20:38:11 66° 289° (WNW) 816 4.0 -6.3°
Drops below altitude 10° 20:43:20 10° 11° (NNE) 2,290 6.1 -7.2°
Sets 20:45:45 0° 15° (NNE) 3,227 6.8 -7.7°
